ROMMA est une association bénévole à but non lucratif. Votre soutien est indispensable : ADHERER à ROMMA ou FAIRE un DON

L'Isle-sur-la-Sorgue - (84, Vaucluse)

Sillon Rhodanien (65 m)   Longitude: 5°02'   Latitude: 43°55' Station partenaire n°71
 

Détail journalier du     <<     >>

Température Precipitation Humidité Pression Vent Dir Rafale Dir. rafale Ensol.
Heure (°C) (mm) (%) (hPa) (km/h) (km/h) (min)
01:00 17.62.293101311ESE29SE0
02:00 18.2088101312ESE27ESE0
03:00 18.7085101214ESE29ESE0
04:00 18.6086101211ESE23ESE0
05:00 18.60.489101111ESE24ESE0
06:00 18.9088101110ESE23ESE0
07:00 18.9088101111ESE23ESE0
08:00 19.4087101112ESE27ESE0
09:00 19.8086101111ESE23E0
10:00 21.508210119ESE26SE30
11:00 22.7078101112SE26SE30
12:00 22.4078101114SE31SSE30
13:00 22.8077101017SE35SSE0
14:00 23.1077101019SSE50S0
15:00 22.8077100918SSE44SSE30
16:00 22.9075101016SSE42SSE0
17:00 22.4076101018SE39SSE0
18:00 22.0076100916SE37SSE30
19:00 21.5076100916SE32SSE0
20:00 21.2077101015SE40SSE0
21:00 20.7079101012SE24SE0
22:00 20.6080101011ESE23SE0
23:00 20.3081101011ESE26E0
minuit 20.6080101013ESE31SSE0

Graphique du 19-10-2019

 

Serveur OMMA